Tracking 18980 objects as of 22-Feb-2018
HD Live streaming from Space Station
objects crossing your sky now

COSMOS 1196

Track COSMOS 1196 now!
10-day predictions
COSMOS 1196 is classified as:


NORAD ID: 11879
Int'l Code: 1980-058E
Perigee: 1,475.4 km
Apogee: 1,481.6 km
Inclination: 74.0 °
Period: 115.4 minutes
Semi major axis: 7849 km
RCS: 0.6946 m2 (medium)
Launch date: July 9, 1980
Source: Commonwealth of Independent States (former USSR) (CIS)
Launch site: PLESETSK MISSILE AND SPACE COMPLEX (PKMTR)
aabbcc
Your satellite tracking list
Your tracking list is empty




NASA's NSSDC Master Catalog

Two Line Element Set (TLE):
1 11879U 80058E   18052.59204191 -.00000020 +00000-0 -26413-4 0  9998
2 11879 074.0165 091.3021 0003978 096.3742 018.8194 12.48364624193335
Source of the keplerian elements: AFSPC